星链-35015 (STARLINK-35015)

导读

STARLINK-35015是美国太空探索技术公司SpaceX星链互联网卫星星座的一员,于2025年8月22日由美国发射升空,属于低轨通信卫星。星链项目旨在构建全球卫星互联网覆盖网络,该卫星入轨后,将和其他星链卫星协同,为全球偏远地区、海洋空域等提供高速低延迟的互联网接入服务。

Basic Information
目录编号:
65283
目录名称:
STARLINK-35015
国际标识:
2025-184L
轨道中心:
EARTH
卫星名称:
星链-35015
卫星全名:
星链-35015 (STARLINK-35015)
卫星状态:
在轨 (已飞行378 天)
发射日期:
2025-08-22 UTC
国别 :
美国 (US)
星等 :
--
Orbit Information
数据来源 国际轨道数据
星历时间: 2026-09-03T21:37:33+0800
16小时前
查看轨道信息
半长轴: 6843.657km
偏心率: 0.0000823
轨道倾角: 97.284°
近地点辐角 93.431°
升交点赤经 294.839°
平近点角 266.703°
近地点: 464.956km
远地点: 466.084km
周期: 93.906分钟
每日圈数: 15.334529
Detailed Information
固有亮度:
5
最大亮度:
2.5
卫星平台:
Starlink V1.0
覆盖范围:
全球
运营商:
太空探索技术公司
运营商所在国:
美国
制造商(研发单位):
太空探索技术公司
制造商所在国:
美国
使用方式:
暂无
Satellite Introduction
Starlink 计划是 SpaceX 推出的全球卫星互联网项目,通过发射低轨道卫星,为全球尤其是偏远地区提供高速、低延迟的互联网服务。自 2019 年起,Starlink 已部署数千颗卫星,旨在缩小全球数字鸿沟,推动互联网普及。该项目还为军事、航空等行业提供通信支持,带来广泛经济效益。
2D Orbit Map
3D Orbit Map
Orbit Altitude Analysis Chart
Orbit Inclination Analysis Chart
Orbit Comprehensive Analysis Chart
View Comprehensive Chart
Conjunction Data List
Event ID Objects TCA Miss Dist (km) Collision Risk Probability Collision Risk Index (CRI) Action
CDM_260904-041605-339206-528321
2026-09-04T
04:16:07+0000
2.950 km
极远距离
1.206105E-6 低风险 0.37
CDM_260904-151504-867406-528321
2026-09-04T
15:15:04+0000
2.847 km
极远距离
1.106309E-6 低风险 0.36
CDM_260903-154706-167206-528321
2026-09-03T
15:47:26+0000
2.675 km
极远距离
1.098538E-6 低风险 0.36